Location: Unspecified
(51.0950°N, 12.9690°E)
Time: 21:59:11
(UTC+00:00)

Cosmos 2056 Rocket - Pass Details

Date: 28 October 2021
Orbit: 741 x 801 km, 74.0° (Epoch: 01 December)

Event Time Altitude Azimuth Distance (km) Brightness Sun altitude
Rises 18:13:18 0° 195° (SSW) 3,172 6.8 -23.1°
Reaches altitude 10° 18:15:39 10° 194° (SSW) 2,250 6.0 -23.5°
Enters shadow 18:20:42 71° 111° (ESE) 788 3.3 -24.3°
